Regional Weather Roundup
Issued by NWS

Home | Current Version | Previous Version | Graphics & Text | Print | Product List | Glossary On
Versions: 1 2 3 4 5 6 7 8 9 10 11 12 13 14 15 16 17 18 19 20 21 22 23 24 25 26 27
000
ASUS45 KBOU 011907
RWRCO

WEATHER ROUNDUP FOR COLORADO
NATIONAL WEATHER SERVICE DENVER/BOULDER CO
1200 PM MST THU DEC 01 2016

NOTE: "FAIR" INDICATES FEW OR NO CLOUDS BELOW 12000 FEET WITH NO
SIGNIFICANT WEATHER AND/OR OBSTRUCTIONS TO VISIBILITY.

COZ001>005-013-030-031-012000-
...NORTHWEST COLORADO...

CITY           SKY/WX    TMP DP  RH WIND       PRES   REMARKS
CRAIG          CLOUDY    29  16  58 CALM      29.99F
HAYDEN         FAIR      25  12  58 N6        29.98F WCI  18
MEEKER         CLOUDY    28  15  58 E3        29.98F
MOUNT WERNER   NOT AVBL
STEAMBOAT SPGS CLOUDY    24  15  69 CALM      29.97F
WALDEN           N/A     23  10  58 S13       29.91F WCI  11
$$

COZ006>008-011-012000-
...WEST CENTRAL VALLEYS...

CITY           SKY/WX    TMP DP  RH WIND       PRES   REMARKS
GRAND JUNCTION CLOUDY    36  14  40 W3        30.02F
MONTROSE       FAIR      33  13  43 NE7       30.01F WCI  27
EAGLE          SUNNY     27  12  54 W3        30.00F
RIFLE          CLOUDY    31  16  54 CALM      30.02F
DELTA          NOT AVBL
NUCLA          FAIR      34  14  44 NW3       30.03F
$$

COZ017>023-064>068-012000-
...SOUTHWEST COLORADO...

CITY           SKY/WX    TMP DP  RH WIND       PRES   REMARKS
DURANGO        FAIR      31  14  49 W5        29.98F WCI  26
CORTEZ         FAIR      32  16  51 SW6       30.01F WCI  26
PAGOSA SPRINGS FAIR      28  11  49 SW3       29.97F
TELLURIDE      FAIR      29  12  48 W7        29.94F WCI  22
WOLF CREEK PAS FAIR      16  10  79 SW8       29.94F WCI   5
$$

COZ009-010-012-014-032>034-037-058>063-012000-
...CENTRAL COLORADO...

CITY           SKY/WX    TMP DP  RH WIND       PRES   REMARKS
ASPEN          PTSUNNY   27  10  49 VRB3      29.92F
BUENA VISTA    FAIR      32   3  29 SE5       29.89F WCI  27
COPPER MTN     NOT AVBL
BERTHOUD PASS  CLOUDY     3  -8  60 NW22G28   29.82S WCI -19
COTTONWOOD PAS FAIR      30   5  34 SE6       29.88S WCI  24
GUNNISON       FAIR      22   7  52 SE3       29.99F
KREMMLING      CLOUDY    28  14  54 CALM      29.97F
LEADVILLE      PTSUNNY   24   5  44 NW5       29.86F WCI  18
MONARCH PASS     N/A     10   7  85 SW25      29.96F WCI -10
SALIDA         FAIR      37   6  28 SW14G22   29.96F
SUNLIGHT       LGT SNOW N/A N/A N/A SW5       29.94S
WILKERSON PASS FAIR      23   3  42 W6        29.87F WCI  16
$$

COZ069>075-012000-
...SAN LUIS VALLEY/SANGRE DE CRISTO MOUNTAINS...

CITY           SKY/WX    TMP DP  RH WIND       PRES   REMARKS
ALAMOSA        FAIR      27   8  44 VRB3      29.96F
LA VETA PASS   FAIR      23   5  46 NE18G26   29.87F WCI   9
SAGUACHE       FAIR      28   7  40 S5        29.95F WCI  23
$$

COZ035-036-038>040-012000-
...NORTHERN COLORADO FRONT RANGE...

CITY           SKY/WX    TMP DP  RH WIND       PRES   REMARKS
DENVER INTL AP PTSUNNY   39   4  23 NW5       29.92F
DMNS CITY PARK   N/A     40   4  22 NE2G10    29.91F
AURORA         PTSUNNY   37   3  24 VRB3      29.92F
FRONT RANGE AP PTSUNNY   39   5  24 N7        29.93
ERIE MUNI ARPT PTSUNNY   37   6  27 CALM      29.93
BOULDER MUN AP FAIR      37   9  30 CALM      29.92F
CENTENNIAL     PTSUNNY   39   4  23 VRB6      29.90F
BROOMFIELD     PTSUNNY   37   5  25 SE3       29.92F
FORT COLLINS   FAIR      34  10  37 CALM      29.94F
LONGMONT       CLOUDY    39   8  27 CALM      29.95F
$$

COZ041-046-047-076>085-087-088-012000-
...PIKES PEAK/PALMER DIVIDE AND SOUTHERN FOOTHILLS...

CITY           SKY/WX    TMP DP  RH WIND       PRES   REMARKS
COLO. SPRINGS  FAIR      34   4  28 CALM      29.92F
A. F. ACADEMY  FAIR      33   4  29 SE6       29.89F WCI  28
SCHRIEVER AFB  NOT AVBL
ELLICOTT       FAIR       1  32 100 VRB6      29.91F WCI -10
FALCON         FAIR      33   3  28 S5        29.91F WCI  28
FORT CARSON    FAIR      35   5  28 NE1       29.91F
LIMON            N/A    N/A N/A N/A MISG      29.94F
MONUMENT HILL  FAIR      32   3  29 E5        29.90F WCI  27
TRINIDAD       FAIR      39   7  26 VRB5      29.91F
$$

COZ042>045-048>051-090-091-012000-
...NORTHEAST COLORADO...

CITY           SKY/WX    TMP DP  RH WIND       PRES   REMARKS
GREELEY ARPT   FAIR      35   9  33 CALM      29.96F
AKRON          FAIR      40   9  28 W12       29.94F
BURLINGTON     FAIR      43   8  23 S12       29.97F
WRAY           NOT AVBL
STERLING       PTSUNNY   41  14  33 SW13      29.94F
HOLYOKE        FAIR      46  12  25 W13G18    29.95F
FORT MORGAN    FAIR      38   7  28 SW5       29.96F
$$

COZ086-089-092>099-012000-
...SOUTHEAST COLORADO...

CITY           SKY/WX    TMP DP  RH WIND       PRES   REMARKS
PUEBLO         FAIR      37   9  31 CALM      29.94F
LA JUNTA       FAIR      38  11  32 SW6       29.96F
LAMAR          FAIR      42  12  29 VRB3      29.97F
SPRINGFIELD      N/A     41   9  26 S9        29.95F
$$




USA.gov is the U.S. government's official web portal to all federal, state and local government web resources and services.